Theta_e
320 318 315 315 314 315 315 315 315 316 316 318 322 322 321 322 321 321 320 319 318 318 322 322 318 320 320 320 322 318 326 328 325 324 323 321 321 319 317 318 320 320 319 320 320
320 319 317 315 314 314 315 315 315 315 315 315 321 323 323 323 322 322 321 321 324 325 324 320 318 319 319 322 321 327 328 327 322 320 322 321 321 321 320 319 321 320 320 321 324
317 320 318 315 315 313 315 315 315 314 314 315 316 322 324 324 321 321 320 323 325 326 325 322 320 319 321 321 322 325 329 326 326 323 322 323 321 320 321 322 319 320 319 319 326
319 317 319 317 315 313 314 315 313 314 313 314 316 316 320 321 325 317 320 322 324 325 323 322 319 319 321 322 322 326 325 326 326 326 326 326 323 322 319 320 318 317 316 318 321
317 317 319 317 316 314 314 314 314 313 312 313 314 315 319 320 320 315 318 321 323 325 323 322 321 319 320 319 320 323 323 324 324 324 325 325 327 326 324 320 319 318 316 316 316
317 315 316 318 316 314 313 312 314 313 314 311 313 315 315 315 312 315 317 316 323 323 322 321 321 319 320 320 320 319 320 320 320 322 322 325 325 324 324 319 317 317 316 316 315
316 316 316 318 316 314 312 312 312 310 312 311 312 313 313 312 311 311 311 313 313 316 318 321 320 321 321 322 318 319 321 319 319 320 322 323 325 325 322 320 319 317 315 315 315
312 316 315 317 317 315 311 311 313 314 314 312 311 313 312 310 311 311 311 310 313 313 313 316 318 318 319 317 317 321 320 323 318 319 320 324 326 322 319 320 322 321 316 314 315
311 311 315 315 318 315 311 311 312 312 312 313 311 310 310 310 312 310 310 310 311 312 312 312 311 313 315 317 317 318 318 320 319 319 320 323 323 322 319 320 319 317 315 315 314
309 309 312 315 317 316 311 311 311 311 312 311 310 311 309 311 311 310 310 310 310 310 311 311 312 314 314 315 314 316 319 320 320 319 318 321 323 321 318 319 319 317 316 315 314
307 308 309 314 316 316 311 311 309 311 312 310 311 310 310 311 311 310 310 310 309 310 313 312 315 316 314 313 314 317 317 318 318 317 318 317 317 316 315 316 318 319 317 317 315
306 307 309 312 316 314 311 310 308 308 311 310 310 310 310 310 312 311 310 311 311 312 310 313 313 311 312 313 316 317 318 318 315 315 317 315 315 314 313 316 316 317 318 317 317
305 306 308 311 315 313 311 309 309 309 308 308 310 310 310 310 312 312 310 309 311 311 312 311 311 310 313 313 314 313 314 314 314 313 312 312 313 312 312 313 313 314 314 317 318
305 305 307 308 315 312 310 310 309 309 300 305 310 310 310 310 312 311 310 310 310 312 311 312 311 311 311 312 312 314 312 314 314 314 313 311 313 311 310 313 313 314 314 317 316
304 305 307 306 312 312 311 310 309 304 303 308 311 310 311 311 312 311 310 311 311 310 310 311 310 311 312 311 310 312 311 313 314 315 315 314 315 311 309 312 314 314 314 315 316
304 305 307 306 311 311 310 310 309 301 302 312 311 315 314 312 314 312 312 311 311 311 311 308 308 309 309 309 309 310 310 310 311 314 315 311 314 311 309 309 313 312 313 314 312
305 306 307 306 310 310 310 309 310 306 310 313 313 314 315 315 314 314 313 314 315 315 315 315 312 310 310 310 309 310 312 313 317 316 313 310 312 311 309 309 311 312 312 311 310
303 306 306 305 307 309 310 309 308 308 310 312 311 312 314 314 314 315 315 316 313 313 314 311 309 311 309 310 311 311 311 311 312 316 310 309 312 311 310 310 310 309 312 311 310
306 306 305 306 309 309 309 311 308 308 312 312 311 312 313 312 313 314 315 314 312 313 314 314 310 309 309 310 311 314 313 309 312 310 313 310 310 310 313 314 312 310 310 310 310
307 305 305 305 310 309 310 310 307 310 311 311 313 312 314 313 313 314 313 310 313 312 310 311 313 309 310 310 310 312 311 315 313 314 311 310 310 312 312 313 312 311 310 310 310
305 306 305 305 308 310 312 309 308 312 311 312 313 313 313 313 313 314 309 308 309 310 310 310 312 310 312 312 312 312 313 312 312 313 309 311 309 309 310 314 312 311 312 311 311
305 308 309 309 310 310 308 307 308 313 313 315 313 314 313 311 312 308 309 309 308 309 311 311 315 313 311 310 310 310 310 310 312 307 309 306 310 311 316 312 311 313 309 310 311
307 312 310 309 311 312 309 310 311 315 315 315 315 314 314 314 312 309 309 308 308 310 311 311 315 315 313 312 312 314 312 310 309 311 309 308 309 306 310 313 312 312 313 312 311
307 311 310 310 310 310 310 311 311 312 314 315 315 313 314 315 311 311 310 310 309 310 312 312 315 315 314 316 315 316 313 312 311 313 311 311 310 309 312 314 313 314 313 312 311
310 309 306 308 312 310 310 311 312 313 314 314 317 315 316 319 315 314 311 311 311 312 314 313 315 315 314 313 314 316 316 313 313 311 311 310 310 311 311 312 314 313 312 312 312
311 310 307 308 310 308 308 312 312 313 316 316 315 314 315 318 315 312 313 312 314 311 313 313 315 314 315 316 315 317 316 317 316 312 311 310 311 311 312 313 314 311 311 313 313
302 306 309 311 312 309 310 311 311 314 313 313 315 317 317 316 315 314 312 311 313 315 315 313 313 316 318 318 319 317 315 315 315 315 312 313 312 310 313 315 310 309 312 312 312
Wind_Speed
18 15 17 13 12 12 11 10 10 12 13 12 10 11 15 12 8 6 6 8 4 12 2 3 2 5 2 1 2 3 1 6 6 7 6 2 1 2 2 3 3 3 3 3 3
21 18 15 14 12 11 11 10 9 10 12 9 7 7 14 11 9 11 16 10 7 5 1 2 1 3 1 2 2 4 4 7 6 5 4 4 4 2 4 4 4 4 4 3 2
19 20 17 14 12 11 11 10 8 8 8 7 5 3 8 8 3 7 14 19 14 11 5 2 2 1 2 3 4 4 8 4 3 4 5 4 4 3 3 6 7 6 6 5 3
19 20 19 16 12 11 11 9 8 6 7 7 5 3 3 7 6 1 3 2 13 17 9 4 2 3 3 5 4 3 5 5 0 3 3 3 4 6 6 7 5 5 6 4 6
22 19 20 18 13 12 12 9 7 5 6 5 5 3 4 3 6 2 3 3 8 20 13 8 3 4 4 3 1 4 3 3 4 7 6 7 12 9 10 10 10 10 5 10 8
21 21 20 21 16 14 13 10 8 6 5 4 4 5 1 4 5 8 5 4 11 14 10 8 4 5 2 4 3 2 4 5 4 5 5 9 11 5 11 7 8 8 10 10 10
19 24 21 22 18 15 13 11 9 8 7 5 3 3 1 10 2 5 4 4 2 4 5 7 6 1 1 3 2 3 4 6 5 5 6 5 16 18 13 9 9 9 9 10 10
30 21 21 22 21 18 14 11 10 8 9 6 4 2 6 5 6 13 8 1 7 3 2 6 6 3 4 3 4 3 1 2 4 7 6 6 13 5 6 14 16 14 10 10 12
27 26 19 19 25 20 16 13 8 6 5 6 3 3 7 4 4 9 7 6 5 5 3 2 3 3 2 3 3 5 4 4 6 2 4 12 8 5 8 10 11 9 9 9 10
27 29 23 19 25 23 17 12 7 7 6 4 0 2 3 3 4 4 7 10 3 4 3 2 1 2 3 4 6 5 5 4 7 2 4 10 16 12 8 8 10 9 9 9 9
28 28 25 19 19 27 23 14 4 1 7 7 5 3 1 2 4 3 6 8 4 4 5 2 3 9 13 10 8 2 4 8 6 8 7 9 14 15 9 9 10 14 9 12 10
25 28 24 21 19 32 32 7 7 5 4 13 5 7 6 3 3 2 12 5 4 5 4 2 12 8 5 5 6 8 11 13 9 9 9 11 23 18 15 17 12 12 13 11 10
25 26 21 21 21 37 31 13 17 7 1 4 7 7 3 5 3 7 9 5 3 6 9 9 3 4 10 5 6 5 10 5 11 10 14 13 28 19 25 22 19 19 17 15 15
25 27 21 21 14 34 14 23 14 8 4 5 4 6 6 5 5 12 14 6 3 10 7 9 7 7 4 5 7 14 7 12 11 4 4 5 10 8 8 11 15 19 13 13 14
29 27 23 20 7 17 19 27 15 6 2 3 4 5 7 13 3 1 10 4 7 7 6 5 4 5 12 12 7 5 6 8 7 5 5 8 7 5 5 10 14 11 10 12 15
37 30 19 17 15 25 34 30 13 5 6 5 4 6 9 6 2 4 5 1 2 5 7 6 3 5 5 4 12 1 4 5 3 5 9 11 9 11 5 6 8 11 11 11 10
30 23 15 20 5 36 45 14 5 4 1 6 6 7 9 7 5 6 11 10 6 4 7 4 15 4 4 4 4 7 4 2 4 6 7 8 10 20 9 11 8 11 10 9 8
39 16 11 17 21 51 31 4 4 6 5 3 6 7 6 5 5 6 10 8 13 4 2 6 5 13 11 14 7 11 10 4 6 3 4 6 7 6 10 16 20 18 13 6 7
15 11 8 19 39 45 13 5 8 6 7 8 9 5 7 5 2 6 8 8 9 14 7 3 5 1 3 7 10 4 8 13 5 4 4 5 8 9 10 11 14 12 13 10 8
10 8 6 7 31 30 7 6 5 5 7 4 6 5 6 7 6 7 7 4 12 14 11 2 7 5 3 5 10 6 1 3 5 5 5 7 11 10 13 9 8 14 16 8 9
1 4 10 13 23 5 4 4 4 5 7 5 5 4 3 5 6 5 4 4 6 4 16 5 6 1 3 10 11 8 5 4 2 3 4 3 6 8 10 3 11 14 13 11 13
3 1 13 43 7 3 4 5 4 5 1 3 3 4 6 7 6 5 8 6 6 9 9 9 4 6 14 4 12 13 11 12 5 5 4 3 16 4 1 5 9 16 9 6 8
3 2 20 27 3 4 4 3 3 3 4 5 4 5 4 6 3 7 5 6 9 10 10 9 5 3 3 2 4 8 12 15 13 3 8 4 8 2 4 10 8 9 3 6 8
3 2 5 5 3 8 9 4 3 1 4 3 4 4 4 6 5 3 4 4 11 9 9 12 5 7 8 3 2 6 12 16 16 8 14 17 17 16 18 16 11 6 3 6 10
1 3 3 5 4 10 5 6 5 2 1 6 4 8 5 4 6 8 7 6 5 11 8 7 6 11 19 20 9 6 10 17 21 19 11 16 19 18 13 18 13 9 5 8 11
2 3 1 6 9 10 6 6 11 7 4 5 6 7 8 5 7 2 3 6 5 8 9 4 5 5 10 15 18 14 17 15 21 23 24 20 22 14 16 16 14 8 9 10 10
6 5 2 11 8 9 8 5 6 7 6 6 10 8 9 13 13 14 9 7 4 5 8 2 3 3 6 8 12 11 24 21 14 19 18 17 25 11 16 5 6 10 7 10 11
Wind_Direction
265 275 297 279 276 282 288 295 300 298 296 306 298 220 205 215 218 220 246 232 222 233 295 323 30 28 120 129 174 139 151 232 212 176 241 328 353 323 285 288 301 230 191 263 304
268 259 271 284 266 274 282 289 295 298 296 303 322 218 216 215 218 229 249 250 237 181 353 36 58 28 50 190 203 176 197 231 189 188 252 290 294 313 325 343 318 315 283 311 200
283 256 257 269 265 264 274 281 284 294 295 294 295 275 224 191 333 243 268 249 239 222 243 130 89 105 183 174 206 198 236 236 235 228 245 260 263 221 241 278 224 246 304 324 213
279 274 249 251 255 254 259 269 267 276 276 276 283 239 192 165 215 65 360 266 228 210 180 120 67 139 195 207 207 229 237 218 27 279 297 269 328 297 224 237 238 253 266 273 265
278 274 249 243 242 240 248 249 253 250 273 274 259 223 169 232 254 166 110 112 170 190 183 200 156 169 205 225 331 203 223 270 267 280 276 276 266 254 253 263 277 286 267 263 259
283 277 261 241 234 228 233 240 230 228 244 268 248 203 126 229 244 234 183 91 139 170 172 162 191 215 235 237 190 313 294 264 272 276 259 263 269 268 252 251 262 264 263 258 242
304 277 265 243 234 220 221 231 216 211 224 243 236 203 266 245 180 194 181 203 153 146 144 188 180 61 34 258 344 271 307 298 230 223 247 238 263 245 251 241 253 256 264 266 252
324 296 275 255 233 216 209 221 215 216 225 217 220 174 246 245 251 231 252 217 224 206 132 144 159 175 165 284 345 316 203 297 312 208 229 211 250 268 264 226 252 257 242 251 261
321 322 291 269 232 212 198 205 216 218 210 209 182 155 258 277 210 226 192 163 165 181 200 132 139 208 175 127 324 202 240 220 328 283 253 210 275 261 259 256 248 250 242 241 252
317 318 319 267 236 204 191 186 177 164 147 164 217 315 240 235 174 150 168 156 123 118 90 133 184 194 151 162 223 210 239 233 245 301 355 280 271 274 299 286 266 265 266 260 253
316 322 302 283 249 194 167 133 73 150 205 198 200 241 142 180 140 110 136 124 91 84 174 170 201 214 220 221 246 331 278 273 286 284 303 270 279 278 263 262 261 269 258 267 254
310 319 296 296 260 183 170 160 169 153 212 237 235 262 268 19 123 126 150 134 143 176 132 207 246 237 231 208 229 235 258 266 279 266 270 286 281 285 269 264 249 250 260 248 256
300 317 299 285 266 169 172 160 140 120 91 269 216 218 196 164 242 187 157 130 143 157 196 214 181 229 199 199 213 215 234 245 255 289 286 305 287 271 265 254 253 247 246 241 243
310 311 301 282 225 157 170 148 135 108 52 249 200 245 167 144 271 187 173 141 156 201 199 246 233 229 196 230 189 253 195 235 249 246 245 161 284 271 299 285 246 251 246 237 231
310 304 294 247 207 162 162 154 148 75 12 151 161 151 155 163 161 34 167 133 161 181 164 228 179 220 232 224 186 243 187 209 229 234 270 232 268 295 244 265 253 249 232 229 225
306 297 280 263 237 161 146 153 127 62 250 170 133 171 157 205 164 108 161 183 107 202 234 219 193 177 215 245 209 86 221 255 254 252 252 224 209 269 214 226 220 243 243 236 224
309 284 233 232 304 148 146 139 99 164 46 175 180 173 181 166 205 151 186 192 195 193 217 219 231 172 202 194 184 187 197 246 220 210 243 187 214 246 297 295 259 263 265 256 230
312 257 211 235 259 149 152 110 138 181 177 113 153 153 185 154 205 181 177 207 216 199 327 213 289 183 189 207 183 192 187 183 216 220 272 208 243 245 221 248 260 263 255 244 213
272 198 161 220 173 146 160 191 184 182 152 136 135 168 197 206 208 175 222 228 210 180 206 222 265 308 206 179 189 168 204 225 296 264 292 251 288 292 258 239 240 238 246 226 201
132 128 146 247 164 160 168 194 164 140 119 148 159 176 177 186 184 182 198 218 219 182 195 231 269 209 203 179 250 193 245 180 188 200 234 248 256 253 297 280 284 274 263 233 199
153 149 169 187 164 160 168 180 164 150 127 150 169 152 193 167 190 206 238 269 205 198 178 156 215 165 171 203 185 191 222 234 225 201 210 272 259 206 226 291 302 300 260 217 189
315 69 152 153 162 181 160 161 145 134 122 129 129 125 174 178 189 218 224 231 163 141 180 202 228 224 223 230 213 204 209 203 205 232 238 205 258 351 228 321 334 319 279 204 165
254 164 150 158 166 145 152 108 99 117 179 152 159 162 181 174 213 198 211 244 169 170 178 163 222 264 274 187 177 217 224 216 226 286 219 205 267 206 270 310 333 315 14 100 118
139 149 126 214 276 155 140 142 120 176 135 156 159 118 160 209 224 271 240 268 184 187 182 172 215 215 236 238 171 204 208 216 206 231 236 237 274 280 303 303 318 305 111 136 136
224 94 114 165 192 164 132 142 181 133 151 169 187 211 181 221 217 226 233 267 163 196 187 200 239 225 239 243 220 209 214 212 214 222 221 255 258 265 311 300 306 280 178 150 147
1 102 105 152 141 155 189 166 178 192 193 190 224 196 228 227 216 188 233 192 197 194 193 213 268 245 255 234 225 228 224 218 220 227 237 252 273 278 273 277 288 261 184 173 157
336 262 163 168 152 160 189 183 203 147 208 257 210 233 252 243 234 253 241 252 256 245 212 256 260 279 281 308 233 240 236 224 224 219 222 226 240 263 265 273 303 323 199 172 164